Location: Eurasberg
(48.3353°N, 11.0839°E)
Time: 05:58:57
(UTC+00:00)

Meteor 1-24 Rocket - Pass Details

Date: 18 January 2026
Orbit: 790 x 925 km, 81.3° (Epoch: 10 February)

Event Time Altitude Azimuth Distance (km) Brightness Sun altitude
Rises 05:47:51 0° 346° (NNW) 3,576 6.6 -11.7°
Reaches altitude 10° 05:50:20 10° 345° (NNW) 2,634 6.0 -11.3°
Maximum altitude 05:56:22 74° 262° (W) 962 3.9 -10.4°
Drops below altitude 10° 06:02:18 10° 178° (S) 2,599 6.5 -9.4°
Sets 06:04:45 0° 177° (S) 3,525 7.3 -9.0°
